CPA459 RCKH-VHHH

Flight info

Callsign CPA459
Flight time 1h 0m
Altitude 36000
Route PARAS2A PARAS T7 WP521 G581 ELATO V522 ABBEY
Aircraft B77W/H-SDE1E2E3FGHIJ2J3J4J5M1RWXY/LB1D1

Departure

Time 2026-05-08 13:34
Airport Kaohsiung International Airport (RCKH)

Arrival

Time 2026-05-08 14:35
Airport Hong Kong International Airport (VHHH)
Time Latitude Longitude Altitude Speed Heading
2026-05-08 13:09 22.57327 120.33973 43 ft 0 kts 271°
2026-05-08 13:25 22.57326 120.33989 43 ft 4 kts 271°
2026-05-08 13:26 22.57326 120.34009 43 ft 4 kts 270°
2026-05-08 13:26 22.57328 120.34037 42 ft 4 kts 248°
2026-05-08 13:26 22.57340 120.34052 41 ft 3 kts 181°
2026-05-08 13:26 22.57365 120.34053 41 ft 4 kts 184°
2026-05-08 13:27 22.57390 120.34060 41 ft 4 kts 217°
2026-05-08 13:27 22.57406 120.34080 41 ft 4 kts 255°
2026-05-08 13:27 22.57408 120.34107 41 ft 4 kts 271°
2026-05-08 13:27 22.57407 120.34136 43 ft 4 kts 272°
2026-05-08 13:28 22.57406 120.34165 43 ft 4 kts 272°
2026-05-08 13:28 22.57405 120.34194 43 ft 4 kts 272°
2026-05-08 13:28 22.57405 120.34201 43 ft 7 kts 272°
2026-05-08 13:30 22.57406 120.34186 43 ft 6 kts 272°
2026-05-08 13:30 22.57408 120.34113 41 ft 11 kts 272°
2026-05-08 13:31 22.57410 120.34026 43 ft 12 kts 272°
2026-05-08 13:31 22.57413 120.33937 43 ft 12 kts 271°
2026-05-08 13:31 22.57416 120.33844 43 ft 13 kts 271°
2026-05-08 13:31 22.57418 120.33748 43 ft 12 kts 272°
2026-05-08 13:32 22.57440 120.33676 43 ft 10 kts 308°
2026-05-08 13:32 22.57491 120.33623 43 ft 10 kts 317°
2026-05-08 13:32 22.57544 120.33570 43 ft 10 kts 317°
2026-05-08 13:32 22.57596 120.33518 43 ft 10 kts 317°
2026-05-08 13:33 22.57664 120.33501 42 ft 10 kts
2026-05-08 13:33 22.57731 120.33506 43 ft 8 kts
2026-05-08 13:33 22.57758 120.33532 43 ft 5 kts 93°
2026-05-08 13:33 22.57753 120.33572 43 ft 1 kts 92°
2026-05-08 13:34 22.57751 120.33612 43 ft 21 kts 92°
2026-05-08 13:34 22.57737 120.34054 43 ft 102 kts 92°
2026-05-08 13:34 22.57705 120.35103 88 ft 169 kts 89°
2026-05-08 13:34 22.57655 120.36387 765 ft 173 kts 90°
2026-05-08 13:35 22.57490 120.37672 1503 ft 177 kts 111°
2026-05-08 13:35 22.56646 120.38678 1935 ft 190 kts 156°
2026-05-08 13:35 22.55345 120.38729 2387 ft 191 kts 198°
2026-05-08 13:35 22.54299 120.37869 2768 ft 194 kts 232°
2026-05-08 13:36 22.53526 120.36560 3074 ft 220 kts 239°
2026-05-08 13:36 22.52731 120.35049 3491 ft 238 kts 240°
2026-05-08 13:36 22.51899 120.33435 4082 ft 254 kts 240°
2026-05-08 13:36 22.51021 120.31724 4810 ft 266 kts 240°
2026-05-08 13:37 22.50112 120.29954 5671 ft 272 kts 240°
2026-05-08 13:37 22.49197 120.28178 6566 ft 275 kts 240°
2026-05-08 13:37 22.48262 120.26372 7512 ft 276 kts 241°
2026-05-08 13:37 22.47318 120.24552 8423 ft 279 kts 241°
2026-05-08 13:38 22.46363 120.22715 9316 ft 281 kts 241°
2026-05-08 13:38 22.45397 120.20860 10179 ft 285 kts 242°
2026-05-08 13:38 22.44410 120.18968 10978 ft 297 kts 242°
2026-05-08 13:38 22.43346 120.16926 11292 ft 327 kts 242°
2026-05-08 13:39 22.42172 120.14676 11540 ft 357 kts 242°
2026-05-08 13:39 22.40932 120.12307 12319 ft 367 kts 241°
2026-05-08 13:39 22.39660 120.09880 13214 ft 374 kts 242°
2026-05-08 13:39 22.38370 120.07420 14180 ft 378 kts 242°
2026-05-08 13:40 22.37065 120.04934 15054 ft 382 kts 242°
2026-05-08 13:40 22.35745 120.02417 15864 ft 388 kts 242°
2026-05-08 13:40 22.34406 119.99867 16720 ft 392 kts 242°
2026-05-08 13:40 22.33053 119.97290 17566 ft 397 kts 242°
2026-05-08 13:41 22.31701 119.94717 18322 ft 402 kts 242°
2026-05-08 13:41 22.30310 119.92071 18992 ft 407 kts 242°
2026-05-08 13:41 22.28905 119.89400 19692 ft 411 kts 242°
2026-05-08 13:41 22.27467 119.86666 20383 ft 416 kts 242°
2026-05-08 13:42 22.26031 119.83937 21010 ft 421 kts 242°
2026-05-08 13:42 22.24581 119.81182 21728 ft 424 kts 241°
2026-05-08 13:42 22.23129 119.78428 22250 ft 431 kts 241°
2026-05-08 13:42 22.21744 119.75550 22949 ft 433 kts 246°
2026-05-08 13:43 22.20618 119.72518 23497 ft 439 kts 251°
2026-05-08 13:43 22.19760 119.69341 23982 ft 442 kts 257°
2026-05-08 13:43 22.19083 119.66123 24657 ft 441 kts 258°
2026-05-08 13:43 22.18405 119.62871 25097 ft 447 kts 258°
2026-05-08 13:44 22.17704 119.59596 25614 ft 450 kts 258°
2026-05-08 13:44 22.16982 119.56293 26104 ft 453 kts 257°
2026-05-08 13:44 22.16332 119.52959 26630 ft 455 kts 261°
2026-05-08 13:44 22.15956 119.49557 27092 ft 458 kts 267°
2026-05-08 13:45 22.15861 119.46117 27608 ft 460 kts 269°
2026-05-08 13:45 22.15795 119.42649 28073 ft 464 kts 269°
2026-05-08 13:45 22.15726 119.39163 28527 ft 467 kts 269°
2026-05-08 13:45 22.15647 119.35656 29036 ft 468 kts 269°
2026-05-08 13:46 22.15558 119.32171 29486 ft 471 kts 269°
2026-05-08 13:46 22.15462 119.28619 29893 ft 474 kts 268°
2026-05-08 13:46 22.15361 119.25054 30245 ft 477 kts 268°
2026-05-08 13:46 22.15259 119.21468 30589 ft 479 kts 269°
2026-05-08 13:47 22.15157 119.17879 30992 ft 478 kts 269°
2026-05-08 13:47 22.15055 119.14299 31470 ft 477 kts 269°
2026-05-08 13:47 22.14966 119.10736 31966 ft 474 kts 270°
2026-05-08 13:47 22.15073 119.07176 32456 ft 472 kts 275°
2026-05-08 13:48 22.15489 119.03675 32941 ft 470 kts 279°
2026-05-08 13:48 22.15971 119.00192 33421 ft 469 kts 279°
2026-05-08 13:48 22.16428 118.96717 33931 ft 467 kts 278°
2026-05-08 13:48 22.16855 118.93260 34368 ft 465 kts 278°
2026-05-08 13:49 22.17267 118.89806 34784 ft 463 kts 278°
2026-05-08 13:49 22.17672 118.86365 35187 ft 461 kts 278°
2026-05-08 13:49 22.18076 118.82940 35584 ft 460 kts 278°
2026-05-08 13:49 22.18481 118.79523 35977 ft 458 kts 279°
2026-05-08 13:50 22.18886 118.76115 36374 ft 457 kts 279°
2026-05-08 13:50 22.19289 118.72726 36752 ft 455 kts 279°
2026-05-08 13:50 22.19685 118.69394 37111 ft 454 kts 279°
2026-05-08 13:50 22.20081 118.66060 37464 ft 453 kts 279°
2026-05-08 13:51 22.20480 118.62690 37830 ft 452 kts 279°
2026-05-08 13:51 22.20879 118.59319 37969 ft 455 kts 279°
2026-05-08 13:51 22.21681 118.52525 38016 ft 456 kts 279°
2026-05-08 13:52 22.22466 118.45785 38019 ft 450 kts 279°
2026-05-08 13:52 22.23226 118.39230 38028 ft 448 kts 279°
2026-05-08 13:53 22.23995 118.32589 38035 ft 448 kts 279°
2026-05-08 13:53 22.24766 118.25907 38032 ft 449 kts 279°
2026-05-08 13:54 22.25535 118.19215 38034 ft 450 kts 279°
2026-05-08 13:54 22.26302 118.12501 38036 ft 451 kts 279°
2026-05-08 13:55 22.27023 118.05754 38039 ft 452 kts 278°
2026-05-08 13:56 22.28119 117.95636 38039 ft 453 kts 279°
2026-05-08 13:56 22.28899 117.88891 38039 ft 453 kts 279°
2026-05-08 13:57 22.29670 117.82191 38041 ft 452 kts 279°
2026-05-08 13:57 22.30437 117.75447 38041 ft 452 kts 279°
2026-05-08 13:58 22.31198 117.68717 38041 ft 451 kts 279°
2026-05-08 13:58 22.31956 117.61987 38045 ft 450 kts 279°
2026-05-08 13:59 22.32710 117.55274 38039 ft 450 kts 279°
2026-05-08 13:59 22.33312 117.48561 38045 ft 450 kts 274°
2026-05-08 14:00 22.33214 117.41787 38046 ft 451 kts 271°
2026-05-08 14:00 22.33059 117.35069 38048 ft 450 kts 271°
2026-05-08 14:01 22.32918 117.28310 38050 ft 450 kts 271°
2026-05-08 14:01 22.32790 117.21552 38048 ft 449 kts 271°
2026-05-08 14:02 22.32663 117.14796 38042 ft 449 kts 271°
2026-05-08 14:02 22.32534 117.08098 38048 ft 449 kts 271°
2026-05-08 14:03 22.32401 117.01352 38049 ft 449 kts 271°
2026-05-08 14:03 22.32266 116.94616 38047 ft 448 kts 271°
2026-05-08 14:04 22.32127 116.87876 38048 ft 448 kts 271°
2026-05-08 14:04 22.31986 116.81148 38045 ft 448 kts 271°
2026-05-08 14:05 22.31842 116.74418 38051 ft 448 kts 271°
2026-05-08 14:05 22.31696 116.67686 38045 ft 448 kts 271°
2026-05-08 14:06 22.31546 116.60960 38050 ft 448 kts 271°
2026-05-08 14:06 22.31394 116.54238 38047 ft 447 kts 271°
2026-05-08 14:07 22.31241 116.47559 38044 ft 447 kts 271°
2026-05-08 14:07 22.31083 116.40847 38042 ft 447 kts 271°
2026-05-08 14:08 22.30923 116.34140 38038 ft 444 kts 271°
2026-05-08 14:08 22.30762 116.27566 37378 ft 435 kts 271°
2026-05-08 14:08 22.30681 116.24297 36767 ft 434 kts 271°
2026-05-08 14:09 22.30601 116.21033 36066 ft 435 kts 271°
2026-05-08 14:09 22.30521 116.17766 35304 ft 437 kts 271°
2026-05-08 14:09 22.30439 116.14481 34690 ft 437 kts 270°
2026-05-08 14:09 22.30356 116.11207 34108 ft 436 kts 270°
2026-05-08 14:10 22.30272 116.07942 33478 ft 434 kts 270°
2026-05-08 14:10 22.30188 116.04689 32903 ft 431 kts 270°
2026-05-08 14:10 22.30104 116.01465 32354 ft 428 kts 270°
2026-05-08 14:10 22.30021 115.98262 31813 ft 426 kts 270°
2026-05-08 14:11 22.29937 115.95080 31275 ft 423 kts 269°
2026-05-08 14:11 22.29853 115.91908 30746 ft 421 kts 269°
2026-05-08 14:11 22.29769 115.88752 30201 ft 420 kts 269°
2026-05-08 14:11 22.29684 115.85602 29595 ft 418 kts 269°
2026-05-08 14:12 22.29599 115.82472 29014 ft 415 kts 269°
2026-05-08 14:12 22.29524 115.79370 28461 ft 412 kts 269°
2026-05-08 14:12 22.29459 115.76287 27911 ft 409 kts 269°
2026-05-08 14:12 22.29394 115.73230 27393 ft 406 kts 269°
2026-05-08 14:13 22.29327 115.70192 26865 ft 403 kts 269°
2026-05-08 14:13 22.29256 115.67178 26361 ft 401 kts 269°
2026-05-08 14:13 22.29174 115.64178 25841 ft 398 kts 269°
2026-05-08 14:13 22.29091 115.61235 25329 ft 397 kts 269°
2026-05-08 14:14 22.29006 115.58262 24817 ft 396 kts 269°
2026-05-08 14:14 22.28921 115.55296 24298 ft 394 kts 269°
2026-05-08 14:14 22.28837 115.52338 23791 ft 393 kts 269°
2026-05-08 14:14 22.28753 115.49388 23219 ft 393 kts 269°
2026-05-08 14:15 22.28668 115.46444 22682 ft 390 kts 269°
2026-05-08 14:15 22.28585 115.43531 22169 ft 387 kts 269°
2026-05-08 14:15 22.28502 115.40638 21666 ft 384 kts 269°
2026-05-08 14:15 22.28419 115.37761 21158 ft 381 kts 269°
2026-05-08 14:16 22.28335 115.34879 20343 ft 387 kts 268°
2026-05-08 14:16 22.28249 115.31985 20008 ft 380 kts 268°
2026-05-08 14:16 22.28163 115.29156 19588 ft 375 kts 268°
2026-05-08 14:16 22.28076 115.26321 18843 ft 381 kts 268°
2026-05-08 14:17 22.27989 115.23490 18574 ft 372 kts 267°
2026-05-08 14:17 22.27903 115.20699 17920 ft 374 kts 267°
2026-05-08 14:17 22.27815 115.17901 17528 ft 368 kts 267°
2026-05-08 14:17 22.27729 115.15160 16980 ft 365 kts 268°
2026-05-08 14:18 22.27677 115.12398 16321 ft 368 kts 271°
2026-05-08 14:18 22.27796 115.10590 16168 ft 361 kts 276°
2026-05-08 14:18 22.28198 115.07935 15715 ft 357 kts 279°
2026-05-08 14:18 22.28631 115.05278 15032 ft 362 kts 279°
2026-05-08 14:19 22.29215 115.01696 14425 ft 358 kts 280°
2026-05-08 14:19 22.29636 114.99086 13946 ft 357 kts 280°
2026-05-08 14:19 22.29921 114.97308 13527 ft 357 kts 280°
2026-05-08 14:19 22.30476 114.93823 12886 ft 353 kts 280°
2026-05-08 14:20 22.30756 114.92057 12570 ft 351 kts 280°
2026-05-08 14:20 22.31164 114.89474 12181 ft 346 kts 280°
2026-05-08 14:20 22.31563 114.86940 11811 ft 340 kts 280°
2026-05-08 14:20 22.31955 114.84444 11279 ft 342 kts 280°
2026-05-08 14:21 22.32351 114.81923 10864 ft 339 kts 280°
2026-05-08 14:21 22.32739 114.79443 10660 ft 329 kts 280°
2026-05-08 14:21 22.33114 114.77042 10549 ft 317 kts 280°
2026-05-08 14:21 22.33475 114.74733 10393 ft 307 kts 280°
2026-05-08 14:22 22.33828 114.72479 10149 ft 302 kts 280°
2026-05-08 14:22 22.34171 114.70280 10039 ft 291 kts 280°
2026-05-08 14:22 22.34506 114.68136 9771 ft 288 kts 280°
2026-05-08 14:22 22.34835 114.66025 9466 ft 284 kts 280°
2026-05-08 14:23 22.34921 114.65474 9343 ft 285 kts 280°
2026-05-08 14:23 22.35177 114.63829 9030 ft 286 kts 280°
2026-05-08 14:23 22.35505 114.61723 8743 ft 283 kts 280°
2026-05-08 14:23 22.35832 114.59620 8342 ft 284 kts 280°
2026-05-08 14:24 22.36159 114.57517 8028 ft 283 kts 280°
2026-05-08 14:24 22.36483 114.55427 7708 ft 282 kts 280°
2026-05-08 14:24 22.36807 114.53340 7355 ft 282 kts 279°
2026-05-08 14:24 22.37130 114.51251 7021 ft 281 kts 279°
2026-05-08 14:25 22.37452 114.49170 6711 ft 281 kts 279°
2026-05-08 14:25 22.37773 114.47094 6388 ft 280 kts 279°
2026-05-08 14:25 22.38089 114.45049 6057 ft 279 kts 279°
2026-05-08 14:25 22.38409 114.42978 5714 ft 279 kts 279°
2026-05-08 14:26 22.38728 114.40907 5368 ft 279 kts 279°
2026-05-08 14:26 22.39046 114.38847 5047 ft 279 kts 279°
2026-05-08 14:26 22.39364 114.36782 4720 ft 279 kts 279°
2026-05-08 14:26 22.39675 114.34761 4574 ft 272 kts 279°
2026-05-08 14:27 22.39985 114.32743 4492 ft 267 kts 279°
2026-05-08 14:27 22.40311 114.30744 4520 ft 274 kts 281°
2026-05-08 14:27 22.40677 114.28742 4501 ft 266 kts 281°
2026-05-08 14:27 22.41030 114.26831 4487 ft 252 kts 281°
2026-05-08 14:28 22.41361 114.25021 4485 ft 239 kts 281°
2026-05-08 14:28 22.41671 114.23313 4491 ft 223 kts 281°
2026-05-08 14:28 22.41956 114.21743 4516 ft 204 kts 281°
2026-05-08 14:28 22.42219 114.20232 4498 ft 206 kts 276°
2026-05-08 14:29 22.42001 114.18727 4474 ft 202 kts 249°
2026-05-08 14:29 22.41518 114.17298 4441 ft 205 kts 249°
2026-05-08 14:29 22.41042 114.15844 4270 ft 203 kts 250°
2026-05-08 14:29 22.40581 114.14419 4131 ft 200 kts 250°
2026-05-08 14:30 22.40125 114.13003 3971 ft 199 kts 250°
2026-05-08 14:30 22.39671 114.11590 3782 ft 199 kts 251°
2026-05-08 14:30 22.39216 114.10176 3500 ft 199 kts 250°
2026-05-08 14:30 22.38768 114.08782 3246 ft 194 kts 250°
2026-05-08 14:31 22.38327 114.07411 2949 ft 195 kts 250°
2026-05-08 14:31 22.37875 114.06023 2769 ft 196 kts 251°
2026-05-08 14:31 22.37422 114.04619 2547 ft 199 kts 250°
2026-05-08 14:32 22.36582 114.01999 2079 ft 179 kts 251°
2026-05-08 14:32 22.36174 114.00729 1803 ft 175 kts 251°
2026-05-08 14:32 22.35791 113.99536 1579 ft 161 kts 251°
2026-05-08 14:32 22.35434 113.98426 1365 ft 152 kts 251°
2026-05-08 14:33 22.35092 113.97354 1196 ft 151 kts 251°
2026-05-08 14:33 22.34745 113.96272 979 ft 153 kts 251°
2026-05-08 14:33 22.34401 113.95203 802 ft 148 kts 251°
2026-05-08 14:33 22.34074 113.94171 592 ft 143 kts 252°
2026-05-08 14:34 22.33751 113.93163 410 ft 142 kts 250°
2026-05-08 14:34 22.33430 113.92166 222 ft 142 kts 251°
2026-05-08 14:34 22.33109 113.91168 48 ft 138 kts 251°
2026-05-08 14:34 22.32830 113.90296 41 ft 99 kts 251°
2026-05-08 14:35 22.32664 113.89782 43 ft 46 kts 251°
2026-05-08 14:35 22.32535 113.89571 42 ft 23 kts 222°
2026-05-08 14:35 22.32451 113.89494 42 ft 13 kts 210°
2026-05-08 14:35 22.32366 113.89508 41 ft 12 kts 162°
2026-05-08 14:36 22.32325 113.89564 41 ft 11 kts 84°
2026-05-08 14:36 22.32351 113.89664 42 ft 19 kts 71°
2026-05-08 14:36 22.32403 113.89824 42 ft 24 kts 71°
2026-05-08 14:36 22.32457 113.89992 42 ft 24 kts 71°
2026-05-08 14:37 22.32512 113.90160 42 ft 24 kts 71°
2026-05-08 14:37 22.32566 113.90328 42 ft 24 kts 70°
2026-05-08 14:37 22.32620 113.90496 42 ft 24 kts 71°
2026-05-08 14:37 22.32674 113.90664 42 ft 24 kts 71°
2026-05-08 14:38 22.32729 113.90832 42 ft 24 kts 71°
2026-05-08 14:38 22.32783 113.91001 42 ft 24 kts 71°
2026-05-08 14:38 22.32837 113.91167 42 ft 24 kts 71°
2026-05-08 14:38 22.32891 113.91334 42 ft 24 kts 71°
2026-05-08 14:39 22.32945 113.91502 43 ft 24 kts 71°
2026-05-08 14:39 22.32999 113.91670 42 ft 24 kts 71°
2026-05-08 14:39 22.33054 113.91838 42 ft 24 kts 71°
2026-05-08 14:39 22.33103 113.91990 42 ft 14 kts 70°
2026-05-08 14:40 22.33107 113.92046 42 ft 7 kts 119°
2026-05-08 14:40 22.33058 113.92063 42 ft 9 kts 162°
2026-05-08 14:40 22.32934 113.92109 42 ft 28 kts 161°
2026-05-08 14:40 22.32751 113.92178 42 ft 28 kts 161°
2026-05-08 14:41 22.32567 113.92247 42 ft 28 kts 161°
2026-05-08 14:41 22.32383 113.92316 42 ft 26 kts 160°
2026-05-08 14:41 22.32257 113.92363 42 ft 15 kts 161°
2026-05-08 14:41 22.32215 113.92386 42 ft 7 kts 131°
2026-05-08 14:42 22.32244 113.92665 42 ft 9 kts 155°
2026-05-08 14:43 22.32180 113.92687 42 ft 12 kts 161°
2026-05-08 14:43 22.32068 113.92728 40 ft 17 kts 161°
2026-05-08 14:43 22.31955 113.92771 41 ft 17 kts 161°
2026-05-08 14:43 22.31862 113.92811 42 ft 12 kts 156°
2026-05-08 14:44 22.31801 113.92820 42 ft 9 kts 212°
2026-05-08 14:44 22.31772 113.92758 42 ft 10 kts 250°
2026-05-08 14:44 22.31743 113.92669 42 ft 16 kts 251°
2026-05-08 14:44 22.31703 113.92545 42 ft 18 kts 251°
2026-05-08 14:45 22.31662 113.92419 42 ft 18 kts 251°
2026-05-08 14:45 22.31622 113.92295 41 ft 12 kts 250°
2026-05-08 14:45 22.31613 113.92267 41 ft 2 kts 250°
2026-05-08 14:45 22.31588 113.92187 41 ft 10 kts 250°
2026-05-08 14:46 22.31564 113.92157 42 ft 4 kts 188°
2026-05-08 14:46 22.31539 113.92171 42 ft 4 kts 142°
2026-05-08 14:46 22.31519 113.92196 42 ft 4 kts 128°
2026-05-08 14:46 22.31507 113.92213 42 ft 0 kts 127°